DECAYED
Showing default

SUPERVIEW-1 04, 43100 (Decayed)

Orbit data source: Space-Track

SUPERVIEW-1 04, 43100 was a payload satellite owned by Beijing HSJ (CN) in LEO that was launched on Tue, 09 Jan 2018 UTC via a CHANG ZHENG 2D launch vehicle from the Taiyaun Space Center, China (TSC). Payload-class satellites include a variety of spacecraft equipped with specific instruments for various scientific and technological missions. These include communications satellites like Starlink; space stations such as the ISS; scientific satellites like the Hubble; Earth observation satellites from companies like Planet Labs, Umbra, and HawkEye 360; GPS; miniature CubeSats for education and research; and military/defense satellites.

Not visible in the next 10 days
Identifier
43100, 2018-002B
Orbit
Decayed
Last TLE update
3 months ago
Origin
Manufacturer
DFH
Mission
Decayed Commercial Imaging
Bus & Motor
CAST3000B, Unknown motor
Mass
~600 kg wet, ~560 kg dry
Launch date (UTC)
2018-01-09 (7 years ago)
Launch vehicle
CHANG ZHENG 2D
Launch site
Taiyaun Space Center, China (TSC)
Object type
Payload
Rocket body
Debris
Shape & HBR
Box + 2 Pan, 4 m
Radar Cross Section
5.141 m², Large (>1 m²)

Expand to show TLE details & history

TLE from 3 months ago
0 SUPERVIEW-1 04
1 43100U 18002B   25107.82973806  .17123878  25499-5  23259-3 0  9992
2 43100  97.3261 204.5278 0013980 268.8624 241.1749 16.48375964404035
Epoch: 2025-04-17T19:54Z
TLE epoch observation values (Epoch: 2025-04-17T19:54:49.368Z)
Latitude
29.88849°
Longitude
-116.1607°
Altitude
152.026 km
Speed
7.815 km/s
True Right ascension
01h 54m 57s
True Declination
29° 43' 35"
Sunlit
Object was in daylight at epoch
Visualization orbit readout
Visualization observer readout
Orbital elements
Apogee altitude
149.522 km
Perigee altitude
131.296 km
Semi-major axis
6,518.546 km
Eccentricity
0.0014
Inclination
97.3261°
RAAN
204.5278°
Arg. of periapsis
268.8624°
True anomaly
Unknown
Mean anomaly
241.1749°
Eccentric anomaly
Unknown
Mean motion
4.12398 °/min
Orbital period
87.29 mins
BSTAR
0.00023259
Loading maneuver chart data...
Loading SW <> Apogee altitude chart data...
Loading historical data...
Loading historical data...
Loading historical data...
Loading historical data...
Loading historical data...
Loading historical data...
Loading historical data...

SUPERVIEW-1 04 Visibility

Observer location: undefined°, undefined°

This satellite is decayed
Span
Click to sort rows by Start time (UTC) header in descending order
Start Az.
Max El. time (UTC)
Max El. Az.
Max El.
End time (UTC)
End Az.
|